This demonstration page uses our WeatherBlox Daily Observations layout. Learn more.

Left ArrowRight Arrow

Hourly Observations for January 13, 2022

Temp ( °F °C ) Dew Point ( °F °C ) Humidity (%) Winds ( mph kmh ) Pressure ( in mb ) Visibility ( mi km ) Precip ( " mm )
12:53 am 00:53 Mostly Clear 47 8.3 34 1.1 61 61 SW 3 6 30.19 1022 10 16 0.00 0.00
1:53 am 01:53 Mostly Clear 46 7.8 35 1.7 66 66 SW 3 6 30.17 1022 10 16 0.00 0.00
2:53 am 02:53 Clear 45 7.2 35 1.7 68 68 SW 3 6 30.16 1022 10 16 0.00 0.00
3:53 am 03:53 Clear 43 6.1 35 1.7 74 74 Calm 30.16 1021 10 16 0.00 0.00
4:53 am 04:53 Clear 40 4.4 34 1.1 79 79 Calm 30.15 1021 10 16 0.00 0.00
5:53 am 05:53 Clear 41 5 33 0.6 73 73 Calm 30.16 1021 10 16 0.00 0.00
6:53 am 06:53 Mostly Clear 39 3.9 32 0 76 76 Calm 30.17 1022 10 16 0.00 0.00
7:53 am 07:53 Mostly Sunny 40 4.4 33 0.6 77 77 Calm 30.18 1022 10 16 0.00 0.00
8:53 am 08:53 Sunny 46 7.8 34 1.1 63 63 W 3 6 30.19 1022 10 16 0.00 0.00
9:53 am 09:53 Partly Cloudy 52 11.1 33 0.6 49 49 WNW 6 9 30.20 1023 10 16 0.00 0.00
10:53 am 10:53 Mostly Cloudy 58 14.4 31 -0.6 36 36 WNW 6 9 30.18 1022 10 16 0.00 0.00
11:53 am 11:53 Mostly Cloudy 63 17.2 30 -1.1 29 29 NW 6 9 30.15 1021 10 16 0.00 0.00
12:53 pm 12:53 Partly Cloudy 66 18.9 29 -1.7 25 25 WNW 5 7 30.11 1020 10 16 0.00 0.00
1:53 pm 13:53 Mostly Sunny 70 21.1 26 -3.3 19 19 WNW 7 11 30.07 1018 10 16 0.00 0.00
2:53 pm 14:53 Mostly Sunny 71 21.7 26 -3.3 19 19 W 6 9 30.06 1018 10 16 0.00 0.00
3:53 pm 15:53 Mostly Sunny 74 23.3 27 -2.8 17 17 VRB 7 11 30.05 1018 10 16 0.00 0.00
4:53 pm 16:53 Mostly Sunny 72 22.2 27 -2.8 19 19 N 9 15 30.05 1018 10 16 0.00 0.00
5:53 pm 17:53 Mostly Clear 69 20.6 27 -2.8 21 21 Calm 30.04 1017 10 16 0.00 0.00
6:53 pm 18:53 Clear 63 17.2 29 -1.7 28 28 Calm 30.05 1018 10 16 0.00 0.00
7:53 pm 19:53 Clear 57 13.9 31 -0.6 37 37 Calm 30.05 1018 10 16 0.00 0.00
8:53 pm 20:53 Mostly Clear 53 11.7 32 0 45 45 Calm 30.05 1018 10 16 0.00 0.00
9:53 pm 21:53 Mostly Clear 51 10.6 32 0 48 48 Calm 30.05 1018 10 16 0.00 0.00
10:53 pm 22:53 Mostly Clear 50 10 32 0 50 50 Calm 30.05 1018 10 16 0.00 0.00
11:53 pm 23:53 Partly Cloudy 48 8.9 32 0 54 54 Calm 30.04 1017 10 16 0.00 0.00

Powered by AerisWeather